sat.trackr.live / text

‹ back to catalog

STARLINK-5901

NORAD 55999 · 2023-042P

PAYLOAD ACTIVE UNKNOWN

§ Identity

Operator
Country
US
Launch date
2023-03-24
Launch site
AFETR
Launch vehicle
Mass (kg)
RCS (m²)

Purposes: comms

External: N2YO · Heavens-Above · Gunter

§ Orbital elements

Epoch: 2026-05-24T23:16:17.487840Z

Period
94.27 min
Inclination
43.0044°
Eccentricity
0.0001566
Mean motion
15.27580427 rev/d
Perigee alt
482.0 km
Apogee alt
484.1 km
Semi-major
6,861.2 km
B*
5.6375e-5
RAAN
348.9746°
Arg perigee
268.3277°
Mean anomaly
91.7395°
Rev number
17,453

§ Raw data

STARLINK-59011 55999U 23042P   26144.96964685  .00001289  00000+0  56375-4 0  99972 55999  43.0044 348.9746 0001566 268.3277  91.7395 15.27580427174533

JSON: /api/v1/satellites/55999 · /tle

For live sub-satellite position, see the globe view (requires WebGL).

§ Visibility from observer

Set your observer location to see the next 7 days of passes ≥ 10°. The values pass through the URL so the page stays shareable.

No JS? Fill the form by hand. The geolocation button needs JavaScript.